Weather reports worldwide

Advertisment
Biarritz, France (7602): temperature & dewpoint: 16.01.2019 04:00:00 - 22.01.2019 04:00:00 (CET)Biarritz, France (7602): temperature 5cm: 16.01.2019 04:00:00 - 22.01.2019 04:00:00 (CET)Biarritz, France (7602): temperature -20cm & temperature -100cm: 16.01.2019 04:00:00 - 22.01.2019 04:00:00 (CET)Biarritz, France (7602): wind speed & gusts: 16.01.2019 04:00:00 - 22.01.2019 04:00:00 (CET)Biarritz, France (7602): wind direction: 16.01.2019 04:00:00 - 22.01.2019 04:00:00 (CET)Biarritz, France (7602): reduced air pressure: 16.01.2019 04:00:00 - 22.01.2019 04:00:00 (CET)Biarritz, France (7602): visibility: 16.01.2019 04:00:00 - 22.01.2019 04:00:00 (CET)Biarritz, France (7602): sunshine duration: 16.01.2019 04:00:00 - 22.01.2019 04:00:00 (CET)Biarritz, France (7602): precipitation: 16.01.2019 04:00:00 - 22.01.2019 04:00:00 (CET)
Date & Time tt [°C] td [°C] tt 5cm [°C] tt -20cm [°C] tt -100cm [°C] ff [km/h] ff [kn] fx [km/h] fx [kn] dd ppp [hPa] vv [km] sd [min] rr [mm]
22.01.2019 04:00:00 4,0 2,3 2,3 8,3 10,3 6 3 9 5 SSE 1020,2 22 0 0,0
22.01.2019 03:00:00 4,6 2,3 2,1 8,4 10,3 4 2 9 5 S 1021,2 31 0 0,0
22.01.2019 02:00:00 3,5 1,7 1,0 8,5 10,3 6 4 10 5 SSE 1022,0 22 0 0,0
22.01.2019 01:00:00 5,0 2,0 3,2 8,5 10,3 2 1 6 3 SE 1022,6 26 0 0,0
22.01.2019 00:00:00 6,2 1,9 5,2 8,6 10,3 5 3 15 8 NNW 1022,9 30 0 0,0
21.01.2019 23:00:00 6,7 2,2 5,9 8,7 10,3 9 5 30 16 NNW 1023,0 39 0 0,0
21.01.2019 22:00:00 7,2 2,3 6,5 8,8 10,3 16 9 32 18 NNW 1023,7 40 0 0,0
21.01.2019 21:00:00 8,0 3,1 6,5 8,8 10,3 5 3 18 10 NNE 1023,8 29 0 0,0
21.01.2019 20:00:00 7,2 2,7 6,3 8,9 10,3 5 3 13 7 S 1023,8 22 0 0,0
21.01.2019 19:00:00 7,2 1,5 5,6 8,9 10,3 7 4 19 10 NW 1024,0 56 0 0,0
21.01.2019 18:00:00 6,5 3,1 6,1 8,9 10,3 3 2 15 8 NW 1023,9 39 21 0,0
21.01.2019 17:00:00 7,4 4,0 9,1 8,9 10,3 9 5 21 11 N 1023,7 20 54 0,0
21.01.2019 16:00:00 7,6 4,0 8,9 8,8 10,3 8 4 17 9 N 1023,7 20 38 0,0
21.01.2019 15:00:00 7,0 3,8 8,6 8,8 10,3 5 3 9 5 N 1023,9 20 0 0,0
21.01.2019 14:00:00 6,7 3,7 6,9 8,7 10,3 2 1 6 4 SE 1024,1 32 0 0,0
21.01.2019 13:00:00 6,1 3,9 6,7 8,7 10,3 4 2 11 6 ESE 1024,5 26 0 0,0
21.01.2019 12:00:00 6,1 4,6 6,8 8,7 10,3 9 5 18 10 NE 1024,9 20 0 0,0
21.01.2019 11:00:00 6,2 5,5 6,7 8,7 10,3 8 4 16 9 NE 1024,2 12 1 0,0
21.01.2019 10:00:00 6,1 5,5 6,1 8,7 10,3 10 5 18 10 NE 1023,3 10 0 0,4
21.01.2019 09:00:00 6,0 5,6 6,1 8,8 10,3 9 5 18 10 NNE 1022,6 3,6 0 0,4
21.01.2019 08:00:00 6,2 5,8 5,7 8,8 10,3 6 3 10 5 E 1021,9 7 0 0,0
21.01.2019 07:00:00 6,4 5,8 5,8 8,8 10,3 2 1 8 4 S 1021,4 7 0 0,0
21.01.2019 06:00:00 6,4 6,0 5,7 8,9 10,3 0 0 5 3 N 1021,2 15 0 0,0
21.01.2019 05:00:00 6,2 5,8 4,9 8,9 10,3 3 1 6 3 W 1020,9 14 0 0,0
21.01.2019 04:00:00 6,0 5,4 4,6 8,9 10,3 2 1 8 4 WSW 1020,9 20 0 0,0
21.01.2019 03:00:00 6,3 5,6 5,2 9,0 10,3 2 1 5 3 SSW 1020,5 6 0 0,0
21.01.2019 02:00:00 6,8 6,1 6,5 9,0 10,3 2 1 7 4 SW 1020,5 10 0 0,8
21.01.2019 01:00:00 7,0 6,1 6,7 9,1 10,3 3 2 7 4 SW 1020,4 7 0 0,2
21.01.2019 00:00:00 7,1 6,2 6,7 9,1 10,3 5 3 9 5 SSW 1019,9 18 0 0,2
20.01.2019 23:00:00 7,8 6,3 6,5 9,1 10,3 11 6 21 11 ENE 1019,6 20 0 0,6
20.01.2019 22:00:00 7,4 6,2 6,3 9,2 10,3 3 2 11 6 ESE 1018,9 42 0 0,0
20.01.2019 21:00:00 8,2 6,3 7,4 9,2 10,3 10 5 18 10 NE 1018,5 37 0 0,0
20.01.2019 20:00:00 8,9 6,2 7,8 9,3 10,3 6 4 23 12 NNE 1017,8 34 0 0,0
20.01.2019 19:00:00 9,7 7,1 6,6 9,2 10,3 9 5 19 10 NW 1017,1 50 0 0,0
20.01.2019 18:00:00 8,8 6,9 7,7 9,2 10,3 9 5 27 15 NW 1016,4 38 0 0,2
20.01.2019 17:00:00 9,8 6,7 9,6 9,1 10,3 3 2 29 16 NW 1015,8 48 14 0,0
20.01.2019 16:00:00 10,1 7,2 8,5 9,1 10,3 10 6 26 14 NW 1015,3 45 11 0,6
20.01.2019 15:00:00 10,3 7,5 10,7 8,9 10,2 15 8 29 16 NW 1015,0 57 9 0,0
20.01.2019 14:00:00 11,7 6,6 12,2 8,8 10,3 19 10 32 17 NNW 1014,8 46 49 0,0
20.01.2019 13:00:00 11,3 7,8 9,1 8,7 10,3 8 4 32 18 N 1014,8 32 35 0,6
20.01.2019 12:00:00 11,4 8,1 11,0 8,7 10,3 16 9 24 13 NNW 1014,6 20 42 0,0
20.01.2019 11:00:00 9,9 8,3 9,1 8,7 10,3 14 8 29 16 NNW 1014,0 19 9 0,2
20.01.2019 10:00:00 9,9 7,8 7,8 8,7 10,3 16 9 30 16 N 1012,9 34 0 0,0
20.01.2019 09:00:00 7,9 7,0 7,4 8,7 10,3 7 4 16 9 SW 1012,3 2,5 0 2,2
20.01.2019 08:00:00 8,0 6,6 6,7 8,7 10,3 11 6 18 10 W 1011,8 5 0 0,8
20.01.2019 07:00:00 7,1 5,2 6,7 8,8 10,3 4 2 10 6 SSW 1011,2 60 0 0,0
20.01.2019 06:00:00 7,3 5,6 6,3 8,8 10,3 5 3 14 7 SSW 1011,1 56 0 0,0
20.01.2019 05:00:00 7,3 5,8 7,1 8,8 10,3 5 3 12 6 S 1010,9 59 0 0,0
20.01.2019 04:00:00 7,5 6,0 7,0 8,8 10,3 6 3 11 6 SSW 1011,1 26 0 0,0
20.01.2019 03:00:00 7,9 6,0 7,2 8,8 10,3 4 2 7 4 SSW 1010,5 12 0 0,0
20.01.2019 02:00:00 8,2 5,8 7,2 8,8 10,3 4 2 9 5 SW 1010,0 15 0 0,0
20.01.2019 01:00:00 8,4 5,9 7,2 8,8 10,2 5 3 10 5 SW 1009,7 9 0 0,0
20.01.2019 00:00:00 8,7 5,6 7,2 8,9 10,3 3 2 6 4 S 1009,3 23 0 0,2
19.01.2019 23:00:00 9,1 5,1 7,2 8,9 10,3 0 0 8 4 N 1008,9 29 0 0,2
19.01.2019 22:00:00 9,8 4,2 8,7 8,9 10,2 4 2 13 7 S 1008,3 27 0 0,0
19.01.2019 21:00:00 10,0 3,9 8,9 8,9 10,3 6 3 11 6 S 1008,3 35 0 0,0
19.01.2019 20:00:00 9,9 3,6 8,6 9,0 10,3 6 3 14 7 SSE 1008,3 45 0 0,0
19.01.2019 19:00:00 9,8 3,7 8,8 8,9 10,3 6 3 14 8 S 1008,3 21 0 0,0
19.01.2019 18:00:00 10,0 3,7 9,2 8,9 10,3 7 4 18 10 S 1008,6 49 0 0,0
19.01.2019 17:00:00 10,7 4,2 10,5 8,8 10,3 10 5 27 15 SSW 1009,0 55 0 0,0
19.01.2019 16:00:00 11,1 4,3 11,2 8,7 10,3 10 5 25 14 SSW 1009,5 54 17 0,0
19.01.2019 15:00:00 11,4 4,4 12,2 8,6 10,3 10 5 25 13 S 1010,2 52 11 0,0
19.01.2019 14:00:00 12,7 4,4 15,0 8,4 10,3 10 6 19 10 S 1011,3 48 42 0,0
19.01.2019 13:00:00 11,8 4,7 13,9 8,3 10,3 9 5 23 12 S 1012,7 42 36 0,0
19.01.2019 12:00:00 11,6 5,9 14,5 8,2 10,3 11 6 23 13 S 1013,9 44 60 0,0
19.01.2019 11:00:00 10,9 6,4 8,5 8,2 10,3 6 4 16 9 SSW 1014,3 38 53 0,0
19.01.2019 10:00:00 8,2 6,0 7,7 8,2 10,3 4 2 10 6 SSW 1014,4 20 12 0,0
19.01.2019 09:00:00 7,8 5,4 6,1 8,2 10,3 7 4 14 7 SW 1014,4 17 0 0,0
19.01.2019 08:00:00 7,5 5,6 6,3 8,2 10,3 8 4 13 7 WSW 1014,4 41 0 0,0
19.01.2019 07:00:00 7,9 6,5 6,7 8,2 10,3 8 4 18 10 W 1014,6 11 0 0,6
19.01.2019 06:00:00 7,2 5,8 6,2 8,2 10,3 5 3 19 10 S 1014,4 49 0 0,0
19.01.2019 05:00:00 7,5 6,3 6,2 8,3 10,3 9 5 19 10 SW 1014,9 32 0 0,0
19.01.2019 04:00:00 6,3 5,4 5,2 8,2 10,3 7 4 10 5 SSW 1015,3 29 0 0,0
19.01.2019 03:00:00 6,0 5,1 5,8 8,3 10,3 6 3 21 11 S 1015,5 20 0 0,6
19.01.2019 02:00:00 7,0 5,6 5,8 8,4 10,3 8 4 16 8 WSW 1015,9 12 0 0,4
19.01.2019 01:00:00 6,8 4,3 5,2 8,4 10,3 8 4 13 7 SW 1016,3 9 0 0,2
19.01.2019 00:00:00 6,4 3,5 4,8 8,4 10,3 5 3 8 4 SSW 1016,4 59 0 0,0
18.01.2019 23:00:00 6,2 3,9 4,3 8,5 10,3 4 2 9 5 S 1016,2 40 0 0,0
18.01.2019 22:00:00 6,1 3,9 3,3 8,6 10,3 6 3 8 5 SSE 1016,2 33 0 0,0
18.01.2019 21:00:00 6,2 4,2 3,8 8,6 10,3 6 3 8 4 SSE 1016,3 22 0 0,0
18.01.2019 20:00:00 6,9 5,0 5,5 8,6 10,3 4 2 9 5 S 1016,8 26 0 0,0
18.01.2019 19:00:00 7,2 5,7 6,6 8,5 10,3 4 2 8 4 S 1017,1 23 0 0,0
18.01.2019 18:00:00 7,8 5,9 7,2 8,5 10,3 5 3 8 5 SSE 1017,4 34 16 0,0
18.01.2019 17:00:00 8,3 6,3 7,8 8,5 10,3 4 2 16 9 SW 1017,8 20 0 0,0
18.01.2019 16:00:00 8,3 6,1 7,7 8,4 10,3 16 9 25 14 W 1018,1 13 0 0,2
18.01.2019 15:00:00 9,2 5,2 10,1 8,3 10,3 13 7 23 12 W 1018,2 46 0 0,0
18.01.2019 14:00:00 9,5 5,9 9,0 8,3 10,3 9 5 18 10 SW 1018,7 58 0 0,0
18.01.2019 13:00:00 8,2 5,7 8,2 8,3 10,3 9 5 19 10 WSW 1019,4 18 0 0,0
18.01.2019 12:00:00 7,6 5,4 7,8 8,2 10,3 5 3 10 5 S 1020,0 34 0 0,0
18.01.2019 11:00:00 7,1 4,9 6,4 8,3 10,3 5 3 11 6 SSW 1020,3 59 0 0,0
18.01.2019 10:00:00 6,0 4,6 5,4 8,3 10,3 6 3 10 5 S 1020,1 52 0 0,0
18.01.2019 09:00:00 5,4 4,4 4,7 8,4 10,3 6 3 11 6 S 1019,8 53 0 0,0
18.01.2019 08:00:00 5,5 4,3 4,7 8,4 10,3 9 5 18 10 E 1020,0 52 0 0,0
18.01.2019 07:00:00 5,9 4,5 3,8 8,5 10,3 4 2 14 8 SSE 1019,9 12 0 0,2
18.01.2019 06:00:00 4,9 3,7 3,8 8,6 10,3 7 4 15 8 SW 1020,2 60 0 0,0
18.01.2019 05:00:00 5,3 4,3 3,6 8,6 10,3 9 5 21 11 SW 1020,5 55 0 0,0
18.01.2019 04:00:00 5,6 4,4 4,1 8,7 10,3 11 6 31 17 SW 1021,0 37 0 0,4
18.01.2019 03:00:00 5,2 4,5 3,8 8,8 10,3 7 4 11 6 SSW 1021,6 54 0 0,0
18.01.2019 02:00:00 5,2 4,2 4,2 8,9 10,3 5 3 13 7 SSW 1021,8 35 0 0,2
18.01.2019 01:00:00 6,4 5,0 5,7 8,9 10,3 7 4 18 10 S 1022,1 4,8 0 0,8
18.01.2019 00:00:00 6,6 5,1 5,5 9,0 10,3 5 3 15 8 SW 1022,3 11 0 0,0
17.01.2019 23:00:00 6,2 4,7 4,8 9,0 10,3 8 4 14 8 SW 1022,0 25 0 0,0
17.01.2019 22:00:00 6,8 5,3 5,3 9,1 10,3 10 5 16 9 SSW 1022,0 37 0 0,0
17.01.2019 21:00:00 9,4 5,2 7,2 9,1 10,3 10 5 23 12 WNW 1021,5 50 0 0,0
17.01.2019 20:00:00 8,0 6,9 7,5 9,1 10,3 4 2 24 13 WSW 1021,5 19 0 0,4
17.01.2019 19:00:00 8,5 7,1 7,6 9,1 10,3 9 5 16 8 SW 1020,9 16 0 0,0
17.01.2019 18:00:00 8,9 6,9 8,9 9,1 10,2 6 4 17 9 SW 1020,4 15 19 0,0
17.01.2019 17:00:00 9,9 5,9 9,6 9,1 10,3 9 5 26 14 WNW 1020,2 40 3 0,0
17.01.2019 16:00:00 9,5 5,7 8,9 9,0 10,2 19 10 44 24 N 1020,1 35 27 0,0
17.01.2019 15:00:00 9,3 6,0 8,0 8,9 10,3 21 12 35 19 W 1020,1 6 14 0,4
17.01.2019 14:00:00 9,9 7,5 9,3 8,8 10,3 12 6 27 15 WSW 1020,2 20 8 0,0
17.01.2019 13:00:00 9,9 6,4 8,7 8,8 10,2 10 5 29 16 WSW 1020,5 38 16 0,0
17.01.2019 12:00:00 9,3 6,9 8,0 8,8 10,3 12 6 49 26 NNW 1021,0 14 23 1,2
17.01.2019 11:00:00 11,0 5,9 10,4 8,8 10,3 21 12 30 16 WNW 1020,6 18 21 0,0
17.01.2019 10:00:00 10,3 5,3 9,9 8,8 10,3 15 8 28 15 WNW 1020,1 43 0 0,0
17.01.2019 09:00:00 10,3 5,5 9,3 8,7 10,2 14 8 30 16 NW 1019,4 41 0 0,0
17.01.2019 08:00:00 10,5 5,5 9,8 8,8 10,3 20 11 34 18 NW 1018,7 41 0 0,0
17.01.2019 07:00:00 10,7 7,2 9,9 8,7 10,3 17 9 28 15 NW 1018,0 33 0 0,0
17.01.2019 06:00:00 10,4 8,2 9,1 8,7 10,3 14 7 23 13 NW 1017,5 36 0 0,4
17.01.2019 05:00:00 9,5 8,9 8,7 8,7 10,2 10 5 34 19 W 1017,3 7 0 3,4
17.01.2019 04:00:00 8,9 8,0 8,7 8,7 10,3 8 4 34 18 SW 1017,3 5 0 1,2
17.01.2019 03:00:00 10,4 7,8 9,1 8,6 10,2 12 6 26 14 WSW 1017,0 10 0 0,2
17.01.2019 02:00:00 10,5 6,6 9,1 8,7 10,3 8 5 14 7 WSW 1016,9 19 0 0,0
17.01.2019 01:00:00 10,1 6,8 8,6 8,7 10,3 8 5 12 6 SW 1017,1 24 0 0,0
17.01.2019 00:00:00 10,2 6,5 9,1 8,6 10,3 5 3 14 7 SW 1017,2 6 0 0,0
16.01.2019 23:00:00 10,3 6,3 8,3 8,7 10,3 8 4 15 8 SW 1017,3 19 0 0,0
16.01.2019 22:00:00 9,0 5,9 6,6 8,7 10,3 6 3 10 5 SW 1017,2 10 0 0,0
16.01.2019 21:00:00 9,6 5,9 8,0 8,7 10,3 4 2 13 7 S 1017,0 14 0 0,0
16.01.2019 20:00:00 9,5 6,4 7,5 8,7 10,3 6 3 11 6 SSW 1017,0 14 0 0,0
16.01.2019 19:00:00 9,8 6,9 7,6 8,6 10,3 5 3 10 5 SSW 1016,8 17 0 0,0
16.01.2019 18:00:00 10,4 8,3 9,7 8,6 10,3 5 3 13 7 SSW 1016,6 15 19 0,0
16.01.2019 17:00:00 11,6 8,8 12,2 8,4 10,3 7 4 18 10 W 1016,3 20 54 0,0
16.01.2019 16:00:00 12,5 9,0 14,9 8,2 10,3 13 7 21 11 W 1016,1 20 60 0,0
16.01.2019 15:00:00 12,6 8,9 13,4 8,1 10,3 15 8 28 15 WNW 1016,1 20 53 0,0
16.01.2019 14:00:00 12,4 8,9 13,7 7,9 10,3 22 12 32 17 WNW 1016,4 16 56 0,0
16.01.2019 13:00:00 12,0 9,0 14,0 7,8 10,3 24 13 37 20 WNW 1017,1 17 60 0,0
16.01.2019 12:00:00 12,0 8,3 14,2 7,8 10,3 25 14 35 19 WNW 1017,4 19 60 0,0
16.01.2019 11:00:00 10,6 7,7 9,0 7,8 10,3 12 6 18 10 WNW 1017,1 20 37 0,0
16.01.2019 10:00:00 9,0 7,1 3,1 7,8 10,3 6 3 14 8 W 1016,7 31 33 0,0
16.01.2019 09:00:00 4,1 3,7 -0,5 8,0 10,3 6 4 9 5 W 1016,3 9 0 0,0
16.01.2019 08:00:00 1,9 1,6 -1,2 8,1 10,2 0 0 7 4 N 1016,1 14 0 0,0
16.01.2019 07:00:00 0,6 0,5 -1,1 8,2 10,3 4 2 9 5 ESE 1015,8 7 0 0,0
16.01.2019 06:00:00 0,9 0,6 -1,3 8,3 10,2 5 3 6 3 SSE 1015,9 9 0 0,0
16.01.2019 05:00:00 1,3 1,0 -1,0 8,5 10,3 2 1 6 4 SE 1016,4 2,3 0 0,0
16.01.2019 04:00:00 2,0 1,7 -0,5 8,6 10,3 4 2 11 6 SSE 1016,8 5 0 0,2

tt = temperature
td = dewpoint
tt 5cm = temperature 5cm
tt -20cm = temperature -20cm
tt -100cm = temperature -100cm
ff = wind speed
fx = gusts
dd = wind direction
ppp = reduced air pressure
vv = visibility
sd = sunshine duration
rr = precipitation

Next stations